星链-2507 (STARLINK-2507 )

导读 | 豆包AI

STARLINK-2507是美国SpaceX公司星链星座中的一颗低轨互联网卫星,于北京时间2021年4月29日发射升空。作为星链互联网星座的组成部分,它运行在近地轨道,为全球尤其是基础设施缺乏地区提供高速、低延迟的宽带互联网服务,属于星链大规模卫星组网建设中的一环,助力实现全球卫星互联网覆盖。

基本信息
目录编号:
48316
目录名称:
STARLINK-2507
国际标识:
2021-036AS
轨道中心:
EARTH
卫星名称:
星链-2507
卫星全名:
星链-2507 (STARLINK-2507 )
卫星状态:
在轨 (已飞行1780 天)
发射日期:
2021-04-29 UTC
国别 :
美国 (US)
星等 :
--
轨道信息
数据来源 国际轨道数据 AOE轨道数据
星历时间 2026-03-13T17:16:55+0800
1天前
查看轨道信息
2026-03-11T05:00:00+0800
3天前
查看轨道信息
半长轴 6925.362km 6925.39km
偏心率 0.0001486 0.0001273
轨道倾角 53.056° 53.055°
近地点辐角 97.299° 92.435°
升交点赤经 75.022° 86.299°
平近点角 262.817° 318.911°
近地点 546.195km 546.371km
远地点 548.255km 548.135km
周期 95.592分钟 95.593分钟
每日圈数 15.063959 15.063866
详细信息
固有亮度:
5
最大亮度:
2.5
卫星平台:
Starlink V1.0
覆盖范围:
全球
运营商:
太空探索技术公司
运营商所在国:
美国
制造商(研发单位):
太空探索技术公司
制造商所在国:
美国
使用方式:
暂无
卫星简介
星链(Starlink)计划是由太空探索技术公司(SpaceX)提出的一个巨型低轨卫星互联网星座项目,计划在2019年至2024年间在太空搭建由约1.2万颗卫星组成的“星链”网络,其中1584颗将部署在地球上空550千米处的近地轨道,并从2020年开始工作。该卫星仍在工作。
2D轨道图
3D轨道图
轨道高度分析图
轨道倾角分析图
轨道综合分析图
查看轨道综合分析图